Tracking 28091 objects as of 30-Sep-2023
HD Live streaming from Space Station
objects crossing your sky now

METEOR 3-5

Track METEOR 3-5 now!
10-day predictions
METEOR 3-5 is classified as:


NORAD ID: 21655
Int'l Code: 1991-056A
Perigee: 1,192.1 km
Apogee: 1,213.7 km
Inclination: 82.6 °
Period: 109.3 minutes
Semi major axis: 7573 km
RCS: 4.9525 m2 (large)
Launch date: August 15, 1991
Source: Commonwealth of Independent States (former USSR) (CIS)
Launch site: PLESETSK MISSILE AND SPACE COMPLEX (PKMTR)
Your satellite tracking list
Your tracking list is empty




NASA's NSSDC Master Catalog

Two Line Element Set (TLE):
1 21655U 91056A   23272.58599233  .00000093  00000-0  21014-3 0  9993
2 21655  82.5529 120.1040 0014305  97.3686 262.9063 13.17118249544033
Source of the keplerian elements: AFSPC